Location: Newark
(41.6478°N, 9.0078°E)
Time: 14:10:08
(UTC+00:00)

UWE-3 - Visible Passes

Search period start: 25 January 2020 00:00
Search period end: 04 February 2020 00:00
Orbit: 584 x 684 km, 97.6° (Epoch: 24 January)

Date Brightness Start Highest point End Pass type
(mag) Time Alt. Az. Time Alt. Az. Time Alt. Az.
25 Jan ? 05:08:05 10° N 05:12:22 79° WNW 05:16:46 10° SSW visible
26 Jan ? 03:54:37 10° NE 03:57:18 16° E 04:00:03 10° SE visible
26 Jan ? 05:29:50 10° N 05:33:56 45° WNW 05:38:08 10° SW visible
27 Jan ? 04:15:23 10° NE 04:19:05 27° E 04:22:51 10° SSE visible
27 Jan ? 05:51:48 10° NNW 05:55:26 27° WNW 05:59:08 10° SW visible
28 Jan ? 04:36:35 10° NNE 04:40:47 46° E 04:45:04 10° S visible
28 Jan ? 17:11:10 10° SW 17:14:01 18° W 17:16:53 10° NW visible
29 Jan ? 04:58:04 10° NNE 05:02:25 82° E 05:06:54 10° S visible
29 Jan ? 17:35:32 10° W 17:35:51 10° W 17:36:10 10° W visible
30 Jan ? 03:45:13 10° ENE 03:47:17 13° E 03:49:21 10° ESE visible
30 Jan ? 05:19:43 10° N 05:24:00 58° WNW 05:28:24 10° SSW visible
31 Jan ? 04:05:38 10° NE 04:09:04 22° E 04:12:35 10° SE visible
31 Jan ? 05:41:35 10° N 05:45:32 34° WNW 05:49:34 10° SW visible
01 Feb ? 04:26:42 10° NNE 04:30:48 37° E 04:34:59 10° SSE visible
01 Feb ? 06:03:42 10° NNW 06:07:00 21° WNW 06:10:20 10° WSW visible
02 Feb ? 04:48:05 10° NNE 04:52:28 65° E 04:56:58 10° S visible
02 Feb ? 17:23:47 10° WSW 17:25:45 13° W 17:27:44 10° WNW visible
03 Feb ? 03:36:25 10° ENE 03:37:14 10° E 03:38:03 10° E visible
03 Feb ? 05:09:40 10° N 05:14:05 73° WNW 05:18:36 10° SSW visible
